Showing default

SECOR 9 (EGRS 9), 2861

Orbit data source: Space-Track

SECOR 9 (EGRS 9), 2861 is an American payload satellite in LEO that was launched on Thu, 29 Jun 1967 UTC via a THOR BURNER 2 launch vehicle from the Air Force Western Test Range (AFWTR). Payload-class satellites include a variety of spacecraft equipped with specific instruments for various scientific and technological missions. These include communications satellites like Starlink; space stations such as the ISS; scientific satellites like the Hubble; Earth observation satellites from companies like Planet Labs, Umbra, and HawkEye 360; GPS; miniature CubeSats for education and research; and military/defense satellites.

Loading next visibility...
Identifier
2861, 1967-065A
Orbit
LEO
Country
Flag of USUS
Related business
Manufacturer
ITT
Mission
Spacecraft
Bus & Motor
SECOR, Unknown motor
Mass
18 kg wet, 18 kg dry
Launch date (UTC)
1967-06-29 (59 years ago)
Launch vehicle
THOR BURNER 2
Launch site
Air Force Western Test Range (AFWTR)
Object type
Payload
Rocket body
Debris
Shape & HBR
BOX, 1.1 m
Radar Cross Section
Medium (>0.1 m² and <1 m²)

Expand to show TLE details & history
Last TLE update: 2 days ago

TLE from 2 days ago
0 SECOR 9 (EGRS 9)
1 02861U 67065A   26263.11471784 -.00000015  00000-0 -10576-1 0  9991
2 02861  89.9738 314.0052 0072093  13.4614 346.8127  8.36661277808999
Epoch: 2026-09-20T02:45Z
TLE epoch observation values (Epoch: 2026-09-20T02:45:11.621Z)
Latitude
0.00002°
Longitude
-86.30676°
Altitude
3,801.573 km
Speed
6.28 km/s
True Right ascension
20h 56m 01s
True Declination
0° 00' 00"
Sunlit
Object was in daylight at epoch
Visualization orbit readout
Latitude
Unknown
Longitude
Unknown
Altitude
Unknown
Speed
Unknown
Apparent Right ascension
Unknown
Apparent Declination
Unknown
Sunlit
N/A
Visualization observer readout
Local Sidereal Time
03:42:18
Azimuth
Unknown
Elevation
Unknown
Doppler factor
Unknown
Orbital elements
Apogee altitude
3,943.083 km
Perigee altitude
3,795.33 km
Semi-major axis
10,247.343 km
Eccentricity
0.00721
Inclination
89.9738°
RAAN
314.0052°
Arg. of periapsis
13.4614°
True anomaly
346.62256°
Mean anomaly
346.8127°
Eccentric anomaly
346.7178°
Mean motion
2.09231 °/min
Orbital period
172.06 mins
BSTAR
-0.010576
Loading maneuver chart data...
Computing Atmospheric mass density...
Loading historical data...
Loading historical data...
Loading historical data...
Loading historical data...
Loading historical data...
Loading historical data...
Loading historical data...
Other satellites on launch #65 in the year 1967 (1967-06-29 UTC)

Documentation

Showing up to 5 results
|